#dbistima — V2PX5 — position and weather

sailwx.info

Track history (hours):
 
Tides and Currents Weather Stations Pressure Air Temp Water Temp Dewpoint Dewpoint Depression Visibility Wind Speed Wind Dir Waves Ship Positions

#dbistima

Last reported at 2014-Oct-23 21:21 UTC. Time now 2014-Oct-23 22:02 UTC.
Position N 43°32' W 001°30'.

MMSI: 304010972.

Date/timePositionNaut miles runAvg speedWind from/ knotsBaromVisibWave heightAir tempDewpointWater temp
2014-Oct-23 21:21N 43°32' W 001°30'0 0.0
2014-Oct-23 20:33N 43°32' W 001°30'0 0.0
2014-Oct-23 19:27N 43°32' W 001°30'0 0.0
2014-Oct-23 18:33N 43°32' W 001°30'0 0.0
2014-Oct-23 17:30N 43°32' W 001°30'0 0.0
2014-Oct-23 15:15N 43°32' W 001°30'0 0.0
2014-Oct-23 14:33N 43°32' W 001°30'0 0.0
2014-Oct-23 13:03N 43°32' W 001°30'0 0.0
2014-Oct-23 12:24N 43°32' W 001°30'0 0.0
2014-Oct-23 11:30N 43°32' W 001°30'3 0.2
2014-Oct-22 21:33N 43°33' W 001°33'1 0.1
2014-Oct-22 07:27N 43°34' W 001°34'0 0.0
2014-Oct-22 05:34N 43°34' W 001°34'0 0.0
2014-Oct-21 12:12N 43°34' W 001°34'0 0.1
2014-Oct-21 11:24N 43°34' W 001°34'34110.1
2014-Oct-20 01:33N 48°27' W 005°45'303 8.1
2014-Oct-18 12:06N 50°53' E 001°07'5 8.8
2014-Oct-18 11:32N 50°56' E 001°13'8 8.2
2014-Oct-18 10:33N 51°01' E 001°22'8 7.5
2014-Oct-18 09:33N 51°06' E 001°31'7 6.9
2014-Oct-18 08:33N 51°11' E 001°40'7 7.5
2014-Oct-18 07:34N 51°16' E 001°47'8 8.1
2014-Oct-18 06:33N 51°24' E 001°53'9 8.9
2014-Oct-18 05:33N 51°31' E 002°01'10 9.7
2014-Oct-18 04:33N 51°38' E 002°12'1010.0
2014-Oct-18 03:33N 51°45' E 002°23'38 9.2
2014-Oct-17 23:25N 52°03' E 003°17'11 9.6
2014-Oct-17 22:16N 52°03' E 003°35'7 9.5
2014-Oct-17 21:33N 52°03' E 003°46'9 8.8
2014-Oct-17 20:33N 52°01' E 004°00'9 9.5
2014-Oct-17 19:33N 51°56' E 004°13'8 7.8
2014-Oct-17 18:33N 51°51' E 004°22'10 9.9
2014-Oct-17 17:34N 51°48' E 004°38'0 0.4
2014-Oct-17 16:34N 51°48' E 004°38'0 0.0
2014-Oct-17 15:34N 51°48' E 004°38'0 0.0
2014-Oct-17 14:34N 51°48' E 004°38'0 0.0
2014-Oct-17 13:33N 51°48' E 004°38'0 0.0
2014-Oct-17 12:33N 51°48' E 004°38'0 0.0
2014-Oct-17 11:34N 51°48' E 004°38'0 0.0
2014-Oct-17 10:33N 51°48' E 004°38'0 0.0
2014-Oct-17 09:34N 51°48' E 004°38'0 0.0
2014-Oct-17 08:33N 51°48' E 004°38'0 0.0
2014-Oct-17 07:33N 51°48' E 004°38'0 0.0
2014-Oct-17 06:33N 51°48' E 004°38'0 0.0
2014-Oct-17 05:33N 51°48' E 004°38'0 0.0
2014-Oct-17 04:33N 51°48' E 004°38'0 0.0
2014-Oct-17 03:33N 51°48' E 004°38'0 0.0
2014-Oct-17 02:33N 51°48' E 004°38'0 0.0
2014-Oct-17 01:33N 51°48' E 004°38'0 0.0
2014-Oct-17 00:33N 51°48' E 004°38'0 0.0
2014-Oct-16 23:34N 51°48' E 004°38'0 0.0
2014-Oct-16 22:33N 51°48' E 004°38'0 0.0
2014-Oct-16 21:33N 51°48' E 004°38'0 0.0
2014-Oct-16 20:33N 51°48' E 004°38'0 0.0
2014-Oct-16 19:33N 51°48' E 004°38'0 0.0
2014-Oct-16 18:33N 51°48' E 004°38'1 1.2
2014-Oct-16 17:34N 51°48' E 004°37'8 8.1
2014-Oct-16 16:33N 51°51' E 004°24'4 3.9
2014-Oct-16 15:33N 51°54' E 004°20'0 0.0
2014-Oct-16 14:33N 51°54' E 004°20'0 0.0
2014-Oct-16 13:30N 51°54' E 004°20'0 0.0
2014-Oct-16 12:33N 51°54' E 004°20'0 0.0
2014-Oct-16 11:33N 51°54' E 004°20'0 0.0
2014-Oct-16 10:33N 51°54' E 004°20'0 0.0
2014-Oct-16 09:33N 51°54' E 004°20'0 0.0
2014-Oct-16 08:33N 51°54' E 004°20'0 0.0
2014-Oct-16 07:33N 51°54' E 004°20'0 0.0
2014-Oct-16 06:33N 51°54' E 004°20'0 0.0
2014-Oct-16 05:33N 51°54' E 004°20'0 0.0
2014-Oct-16 04:30N 51°54' E 004°20'0 0.0
2014-Oct-16 03:33N 51°54' E 004°20'0 0.4
2014-Oct-16 02:33N 51°54' E 004°19'6 6.3
2014-Oct-16 01:33N 51°57' E 004°10'7 7.0
2014-Oct-16 00:33N 51°60' E 004°00'9 8.1
2014-Oct-15 23:30N 51°59' E 003°46'2 2.5
2014-Oct-15 22:31N 51°57' E 003°43'0 0.0
2014-Oct-15 19:22N 51°57' E 003°44'3 0.9
2014-Oct-15 16:22N 51°57' E 003°39'7 7.1
2014-Oct-15 15:19N 51°55' E 003°27'46 6.8
2014-Oct-15 08:33N 51°34' E 002°22'7 7.5
2014-Oct-15 07:33N 51°28' E 002°15'17 8.1
2014-Oct-15 05:25N 51°13' E 002°01'8 9.4
2014-Oct-15 04:34N 51°08' E 001°51'1211.9
2014-Oct-15 03:33N 50°60' E 001°37'5110.1
2014-Oct-14 22:32N 50°25' E 000°38'1010.0
2014-Oct-14 21:34N 50°23' E 000°24'  
Track history (hours):
 
Tides and Currents Weather Stations Pressure Air Temp Water Temp Dewpoint Dewpoint Depression Visibility Wind Speed Wind Dir Waves Ship Positions

#dbistima

Last reported at 2014-Oct-23 21:21 UTC. Time now 2014-Oct-23 22:02 UTC.
Position N 43°32' W 001°30'.

MMSI: 304010972.

Date/timePositionNaut miles runAvg speedWind from/ knotsBaromVisibWave heightAir tempDewpointWater temp
2014-Oct-23 21:21N 43°32' W 001°30'0 0.0
2014-Oct-23 20:33N 43°32' W 001°30'0 0.0
2014-Oct-23 19:27N 43°32' W 001°30'0 0.0
2014-Oct-23 18:33N 43°32' W 001°30'0 0.0
2014-Oct-23 17:30N 43°32' W 001°30'0 0.0
2014-Oct-23 15:15N 43°32' W 001°30'0 0.0
2014-Oct-23 14:33N 43°32' W 001°30'0 0.0
2014-Oct-23 13:03N 43°32' W 001°30'0 0.0
2014-Oct-23 12:24N 43°32' W 001°30'0 0.0
2014-Oct-23 11:30N 43°32' W 001°30'3 0.2
2014-Oct-22 21:33N 43°33' W 001°33'1 0.1
2014-Oct-22 07:27N 43°34' W 001°34'0 0.0
2014-Oct-22 05:34N 43°34' W 001°34'0 0.0
2014-Oct-21 12:12N 43°34' W 001°34'0 0.1
2014-Oct-21 11:24N 43°34' W 001°34'34110.1
2014-Oct-20 01:33N 48°27' W 005°45'303 8.1
2014-Oct-18 12:06N 50°53' E 001°07'5 8.8
2014-Oct-18 11:32N 50°56' E 001°13'8 8.2
2014-Oct-18 10:33N 51°01' E 001°22'8 7.5
2014-Oct-18 09:33N 51°06' E 001°31'7 6.9
2014-Oct-18 08:33N 51°11' E 001°40'7 7.5
2014-Oct-18 07:34N 51°16' E 001°47'8 8.1
2014-Oct-18 06:33N 51°24' E 001°53'9 8.9
2014-Oct-18 05:33N 51°31' E 002°01'10 9.7
2014-Oct-18 04:33N 51°38' E 002°12'1010.0
2014-Oct-18 03:33N 51°45' E 002°23'38 9.2
2014-Oct-17 23:25N 52°03' E 003°17'11 9.6
2014-Oct-17 22:16N 52°03' E 003°35'7 9.5
2014-Oct-17 21:33N 52°03' E 003°46'9 8.8
2014-Oct-17 20:33N 52°01' E 004°00'9 9.5
2014-Oct-17 19:33N 51°56' E 004°13'8 7.8
2014-Oct-17 18:33N 51°51' E 004°22'10 9.9
2014-Oct-17 17:34N 51°48' E 004°38'0 0.4
2014-Oct-17 16:34N 51°48' E 004°38'0 0.0
2014-Oct-17 15:34N 51°48' E 004°38'0 0.0
2014-Oct-17 14:34N 51°48' E 004°38'0 0.0
2014-Oct-17 13:33N 51°48' E 004°38'0 0.0
2014-Oct-17 12:33N 51°48' E 004°38'0 0.0
2014-Oct-17 11:34N 51°48' E 004°38'0 0.0
2014-Oct-17 10:33N 51°48' E 004°38'0 0.0
2014-Oct-17 09:34N 51°48' E 004°38'0 0.0
2014-Oct-17 08:33N 51°48' E 004°38'0 0.0
2014-Oct-17 07:33N 51°48' E 004°38'0 0.0
2014-Oct-17 06:33N 51°48' E 004°38'0 0.0
2014-Oct-17 05:33N 51°48' E 004°38'0 0.0
2014-Oct-17 04:33N 51°48' E 004°38'0 0.0
2014-Oct-17 03:33N 51°48' E 004°38'0 0.0
2014-Oct-17 02:33N 51°48' E 004°38'0 0.0
2014-Oct-17 01:33N 51°48' E 004°38'0 0.0
2014-Oct-17 00:33N 51°48' E 004°38'0 0.0
2014-Oct-16 23:34N 51°48' E 004°38'0 0.0
2014-Oct-16 22:33N 51°48' E 004°38'0 0.0
2014-Oct-16 21:33N 51°48' E 004°38'0 0.0
2014-Oct-16 20:33N 51°48' E 004°38'0 0.0
2014-Oct-16 19:33N 51°48' E 004°38'0 0.0
2014-Oct-16 18:33N 51°48' E 004°38'1 1.2
2014-Oct-16 17:34N 51°48' E 004°37'8 8.1
2014-Oct-16 16:33N 51°51' E 004°24'4 3.9
2014-Oct-16 15:33N 51°54' E 004°20'0 0.0
2014-Oct-16 14:33N 51°54' E 004°20'0 0.0
2014-Oct-16 13:30N 51°54' E 004°20'0 0.0
2014-Oct-16 12:33N 51°54' E 004°20'0 0.0
2014-Oct-16 11:33N 51°54' E 004°20'0 0.0
2014-Oct-16 10:33N 51°54' E 004°20'0 0.0
2014-Oct-16 09:33N 51°54' E 004°20'0 0.0
2014-Oct-16 08:33N 51°54' E 004°20'0 0.0
2014-Oct-16 07:33N 51°54' E 004°20'0 0.0
2014-Oct-16 06:33N 51°54' E 004°20'0 0.0
2014-Oct-16 05:33N 51°54' E 004°20'0 0.0
2014-Oct-16 04:30N 51°54' E 004°20'0 0.0
2014-Oct-16 03:33N 51°54' E 004°20'0 0.4
2014-Oct-16 02:33N 51°54' E 004°19'6 6.3
2014-Oct-16 01:33N 51°57' E 004°10'7 7.0
2014-Oct-16 00:33N 51°60' E 004°00'9 8.1
2014-Oct-15 23:30N 51°59' E 003°46'2 2.5
2014-Oct-15 22:31N 51°57' E 003°43'0 0.0
2014-Oct-15 19:22N 51°57' E 003°44'3 0.9
2014-Oct-15 16:22N 51°57' E 003°39'7 7.1
2014-Oct-15 15:19N 51°55' E 003°27'46 6.8
2014-Oct-15 08:33N 51°34' E 002°22'7 7.5
2014-Oct-15 07:33N 51°28' E 002°15'17 8.1
2014-Oct-15 05:25N 51°13' E 002°01'8 9.4
2014-Oct-15 04:34N 51°08' E 001°51'1211.9
2014-Oct-15 03:33N 50°60' E 001°37'5110.1
2014-Oct-14 22:32N 50°25' E 000°38'1010.0
2014-Oct-14 21:34N 50°23' E 000°24'  

Dump ship's entire track history